• In Deutschland
  • Länderverzeichnis
  • Für 7 Tage
  • Wassertemperatur
  • Satellitenkarten
  • Wetterkarte
  • Widgets
  • user-avatar
    Anmelden

    Stündliche Wetter Igls

    Heute, 26 Mai, Samstag

    Zeit Temperatur Niederschläge Wind Luftdruck Luftfeuchtigkeit
    00:00 +12°C° 0 mm 1 m/S 686 mmHg 93%
    01:00 +13°C° 0 mm 1 m/S 687 mmHg 90%
    02:00 +12°C° 0 mm 1 m/S 687 mmHg 90%
    03:00 +12°C° 0 mm 1 m/S 687 mmHg 90%
    04:00 +12°C° 0 mm 1 m/S 687 mmHg 90%
    05:00 +14°C° 0 mm 1 m/S 687 mmHg 85%
    06:00 +16°C° 0 mm 1 m/S 688 mmHg 80%
    07:00 +19°C° 0 mm 1 m/S 688 mmHg 72%
    08:00 +21°C° 0 mm 1 m/S 688 mmHg 63%
    09:00 +23°C° 0 mm 1 m/S 689 mmHg 53%
    10:00 +25°C° 0 mm 1 m/S 689 mmHg 44%
    11:00 +25°C° 0 mm 1 m/S 689 mmHg 42%
    12:00 +26°C° 0 mm 1 m/S 689 mmHg 40%
    13:00 +26°C° 0 mm 1 m/S 689 mmHg 39%
    14:00 +26°C° 0,1 mm 2 m/S 689 mmHg 41%
    15:00 +26°C° 0,1 mm 2 m/S 689 mmHg 44%
    16:00 +25°C° 0,1 mm 2 m/S 688 mmHg 47%
    17:00 +24°C° 0,6 mm 1 m/S 688 mmHg 58%
    18:00 +22°C° 0,6 mm 1 m/S 688 mmHg 70%
    19:00 +20°C° 0,6 mm 1 m/S 688 mmHg 81%
    20:00 +19°C° 0,6 mm 1 m/S 688 mmHg 84%
    21:00 +16°C° 0,6 mm 1 m/S 688 mmHg 87%
    22:00 +15°C° 0,6 mm 1 m/S 688 mmHg 90%
    23:00 +15°C° 0 mm 1 m/S 688 mmHg 90%

    Morgen, 27 Mai, Sonntag

    Zeit Temperatur Niederschläge Wind Luftdruck Luftfeuchtigkeit
    00:00 +14°C° 0 mm 1 m/S 688 mmHg 89%
    01:00 +14°C° 0 mm 1 m/S 688 mmHg 89%
    02:00 +14°C° 0 mm 1 m/S 687 mmHg 88%
    03:00 +14°C° 0 mm 1 m/S 687 mmHg 88%
    04:00 +14°C° 0 mm 1 m/S 687 mmHg 87%
    05:00 +15°C° 0 mm 1 m/S 687 mmHg 83%
    06:00 +18°C° 0 mm 1 m/S 688 mmHg 79%
    07:00 +19°C° 0 mm 1 m/S 688 mmHg 75%
    08:00 +21°C° 0,1 mm 1 m/S 688 mmHg 66%
    09:00 +23°C° 0,1 mm 1 m/S 688 mmHg 58%
    10:00 +23°C° 0,1 mm 0 m/S 689 mmHg 49%
    11:00 +25°C° 0,2 mm 1 m/S 689 mmHg 47%
    12:00 +26°C° 0,2 mm 1 m/S 689 mmHg 45%
    13:00 +26°C° 0,2 mm 1 m/S 688 mmHg 43%
    14:00 +26°C° 0,4 mm 1 m/S 688 mmHg 44%
    15:00 +26°C° 0,4 mm 1 m/S 688 mmHg 46%
    16:00 +25°C° 0,4 mm 1 m/S 688 mmHg 48%
    17:00 +24°C° 0,8 mm 1 m/S 687 mmHg 58%
    18:00 +22°C° 0,8 mm 1 m/S 687 mmHg 69%
    19:00 +21°C° 0,8 mm 1 m/S 687 mmHg 80%
    20:00 +20°C° 0,3 mm 1 m/S 687 mmHg 82%
    21:00 +18°C° 0,3 mm 1 m/S 687 mmHg 83%
    22:00 +16°C° 0,3 mm 1 m/S 687 mmHg 85%
    23:00 +15°C° 0 mm 1 m/S 687 mmHg 85%

    übermorgen, 28 Mai, Montag

    Zeit Temperatur Niederschläge Wind Luftdruck Luftfeuchtigkeit
    00:00 +15°C° 0 mm 2 m/S 687 mmHg 85%
    01:00 +14°C° 0 mm 2 m/S 687 mmHg 86%
    02:00 +14°C° 0 mm 2 m/S 686 mmHg 85%
    03:00 +14°C° 0 mm 2 m/S 686 mmHg 84%
    04:00 +14°C° 0 mm 2 m/S 686 mmHg 84%
    05:00 +15°C° 0 mm 2 m/S 686 mmHg 79%
    06:00 +18°C° 0 mm 1 m/S 687 mmHg 73%
    07:00 +20°C° 0 mm 1 m/S 687 mmHg 68%
    08:00 +22°C° 0 mm 1 m/S 688 mmHg 60%
    09:00 +24°C° 0 mm 2 m/S 688 mmHg 51%
    10:00 +26°C° 0 mm 2 m/S 688 mmHg 42%
    11:00 +27°C° 0,1 mm 2 m/S 688 mmHg 41%
    12:00 +27°C° 0,1 mm 2 m/S 688 mmHg 39%
    13:00 +28°C° 0,1 mm 2 m/S 688 mmHg 38%
    14:00 +27°C° 0,2 mm 2 m/S 687 mmHg 42%
    15:00 +27°C° 0,2 mm 2 m/S 687 mmHg 47%
    16:00 +26°C° 0,2 mm 2 m/S 687 mmHg 51%
    17:00 +24°C° 1,1 mm 2 m/S 686 mmHg 60%
    18:00 +23°C° 1,1 mm 2 m/S 686 mmHg 69%
    19:00 +22°C° 1,1 mm 1 m/S 686 mmHg 78%
    20:00 +19°C° 0,4 mm 2 m/S 686 mmHg 82%
    21:00 +18°C° 0,4 mm 2 m/S 686 mmHg 85%
    22:00 +17°C° 0,4 mm 2 m/S 686 mmHg 89%
    23:00 +16°C° 0 mm 2 m/S 686 mmHg 90%

    29 Mai, Dienstag

    Zeit Temperatur Niederschläge Wind Luftdruck Luftfeuchtigkeit
    00:00 +16°C° 0 mm 2 m/S 686 mmHg 90%
    01:00 +15°C° 0 mm 2 m/S 686 mmHg 91%
    02:00 +15°C° 0 mm 2 m/S 685 mmHg 90%
    03:00 +15°C° 0 mm 2 m/S 685 mmHg 90%
    04:00 +14°C° 0 mm 2 m/S 685 mmHg 89%
    05:00 +16°C° 0 mm 2 m/S 685 mmHg 84%
    06:00 +17°C° 0 mm 2 m/S 686 mmHg 79%
    07:00 +18°C° 0 mm 2 m/S 686 mmHg 74%
    08:00 +20°C° 0 mm 2 m/S 686 mmHg 66%
    09:00 +23°C° 0 mm 2 m/S 686 mmHg 57%
    10:00 +25°C° 0 mm 2 m/S 686 mmHg 48%
    11:00 +26°C° 0,2 mm 2 m/S 686 mmHg 48%
    12:00 +26°C° 0,2 mm 2 m/S 686 mmHg 48%
    13:00 +27°C° 0,2 mm 2 m/S 686 mmHg 47%
    14:00 +26°C° 0,8 mm 2 m/S 685 mmHg 52%
    15:00 +26°C° 0,8 mm 2 m/S 685 mmHg 57%
    16:00 +25°C° 0,8 mm 2 m/S 684 mmHg 62%
    17:00 +24°C° 1,8 mm 2 m/S 684 mmHg 70%
    18:00 +21°C° 1,8 mm 2 m/S 684 mmHg 78%
    19:00 +21°C° 1,8 mm 1 m/S 684 mmHg 86%
    20:00 +20°C° 1,1 mm 1 m/S 684 mmHg 89%
    21:00 +18°C° 1,1 mm 2 m/S 684 mmHg 92%
    22:00 +17°C° 1,1 mm 2 m/S 684 mmHg 94%
    23:00 +16°C° 0,2 mm 2 m/S 684 mmHg 94%

    30 Mai, Mittwoch

    Zeit Temperatur Niederschläge Wind Luftdruck Luftfeuchtigkeit
    00:00 +16°C° 0,2 mm 2 m/S 684 mmHg 95%
    01:00 +15°C° 0,2 mm 2 m/S 684 mmHg 95%
    02:00 +15°C° 0,1 mm 2 m/S 683 mmHg 94%
    03:00 +14°C° 0,1 mm 2 m/S 683 mmHg 94%
    04:00 +14°C° 0,1 mm 2 m/S 683 mmHg 94%
    05:00 +15°C° 0 mm 1 m/S 683 mmHg 89%
    06:00 +18°C° 0 mm 1 m/S 684 mmHg 84%
    07:00 +19°C° 0 mm 1 m/S 684 mmHg 79%
    08:00 +21°C° 0 mm 1 m/S 684 mmHg 68%
    09:00 +24°C° 0 mm 1 m/S 684 mmHg 57%
    10:00 +26°C° 0 mm 1 m/S 685 mmHg 45%
    11:00 +26°C° 0,1 mm 2 m/S 685 mmHg 44%
    12:00 +27°C° 0,1 mm 2 m/S 684 mmHg 43%
    13:00 +27°C° 0,1 mm 2 m/S 684 mmHg 42%
    14:00 +27°C° 1,1 mm 2 m/S 684 mmHg 49%
    15:00 +26°C° 1,1 mm 2 m/S 683 mmHg 56%
    16:00 +25°C° 1,1 mm 3 m/S 683 mmHg 63%
    17:00 +24°C° 2,2 mm 2 m/S 683 mmHg 70%
    18:00 +21°C° 2,2 mm 2 m/S 683 mmHg 77%
    19:00 +21°C° 2,2 mm 1 m/S 683 mmHg 84%
    20:00 +20°C° 0,7 mm 1 m/S 683 mmHg 86%
    21:00 +19°C° 0,7 mm 1 m/S 683 mmHg 89%
    22:00 +16°C° 0,7 mm 2 m/S 683 mmHg 92%
    23:00 +16°C° 0,4 mm 2 m/S 683 mmHg 92%

    31 Mai, Donnerstag

    Zeit Temperatur Niederschläge Wind Luftdruck Luftfeuchtigkeit
    00:00 +15°C° 0,4 mm 2 m/S 683 mmHg 92%
    01:00 +15°C° 0,4 mm 2 m/S 683 mmHg 93%
    02:00 +15°C° 0,5 mm 2 m/S 683 mmHg 93%
    03:00 +14°C° 0,5 mm 1 m/S 683 mmHg 92%
    04:00 +14°C° 0,5 mm 1 m/S 683 mmHg 92%
    05:00 +15°C° 0,3 mm 1 m/S 683 mmHg 88%
    06:00 +18°C° 0,3 mm 1 m/S 683 mmHg 83%
    07:00 +19°C° 0,3 mm 1 m/S 684 mmHg 79%
    08:00 +21°C° 0,4 mm 1 m/S 684 mmHg 74%
    09:00 +22°C° 0,4 mm 1 m/S 684 mmHg 69%
    10:00 +24°C° 0,4 mm 1 m/S 684 mmHg 64%
    11:00 +24°C° 0,9 mm 1 m/S 684 mmHg 63%
    12:00 +25°C° 0,9 mm 1 m/S 684 mmHg 62%
    13:00 +25°C° 0,9 mm 1 m/S 684 mmHg 61%
    14:00 +25°C° 1,1 mm 1 m/S 684 mmHg 63%
    15:00 +24°C° 1,1 mm 1 m/S 684 mmHg 65%
    16:00 +24°C° 1,1 mm 1 m/S 683 mmHg 67%
    17:00 +23°C° 0,6 mm 1 m/S 683 mmHg 72%
    18:00 +22°C° 0,6 mm 1 m/S 684 mmHg 77%
    19:00 +21°C° 0,6 mm 1 m/S 684 mmHg 83%
    20:00 +20°C° 0,7 mm 1 m/S 684 mmHg 85%
    21:00 +19°C° 0,7 mm 1 m/S 684 mmHg 88%
    22:00 +18°C° 0,7 mm 1 m/S 684 mmHg 90%
    23:00 +16°C° 1,2 mm 1 m/S 684 mmHg 91%
    Mehr zeigen